カタログに戻る

DISKSAT D

運用中科学VLEO
NORAD 67221·PAYLOAD·🇺🇸 United States

打ち上げ Dec 18, 2025 から Wallops Flight Facility

Loading…

次のパス (今後24時間)

TLE

最新Source: Space-Track

元期: Sep 14, 2026, 06:01 UTC

1 67221U 25305C   26257.25100989  .00001241  00000-0  91259-4 0  9997
2 67221  45.0050 330.8904 0006448 302.3524  57.6728 15.09565627 40771

AllMySatでDISKSAT Dをリアルタイム追跡

Download on the App Store